| time (UTC) | temp F | wind direction | speed MPH | gust MPH | rain 1hr in | rain 24hr in | rain mn in | humidity % | barometer mb |
| 20260502163030 | 54 | 0 | 0.0 | 1.0 | 0.07 | 0.12 | 0.12 | 90 | 1012.5 |
| 20260502161532 | 55 | 0 | 0.0 | 1.0 | 0.06 | 0.10 | 0.10 | 88 | 1012.6 |
| 20260502151537 | 56 | 0 | 0.0 | 1.0 | 0.03 | 0.03 | 0.03 | 85 | 1012.9 |
| 20260502123045 | 59 | 88 | 0.0 | 3.0 | 0.00 | 0.00 | 0.00 | 76 | 1014.5 |
| 20260502121530 | 59 | 101 | 1.0 | 3.0 | 0.00 | 0.00 | 0.00 | 76 | 1014.8 |
| 20260502114530 | 59 | 0 | 1.0 | 5.0 | 0.00 | 0.00 | 0.00 | 78 | 1015.2 |
| 20260502113036 | 59 | 70 | 1.0 | 5.0 | 0.00 | 0.00 | 0.00 | 80 | 1015.4 |
| 20260502111544 | 59 | 76 | 2.0 | 7.0 | 0.00 | 0.00 | 0.00 | 80 | 1015.6 |
| 20260502110032 | 59 | 122 | 1.0 | 6.0 | 0.00 | 0.00 | 0.00 | 83 | 1016.0 |
| 20260502104529 | 58 | 103 | 1.0 | 5.0 | 0.00 | 0.00 | 0.00 | 84 | 1016.1 |
| 20260502103030 | 56 | 75 | 3.0 | 8.0 | 0.00 | 0.00 | 0.00 | 86 | 1016.1 |
| 20260502101530 | 56 | 80 | 3.0 | 6.0 | 0.00 | 0.00 | 0.00 | 86 | 1016.2 |
| 20260502091530 | 54 | 113 | 4.0 | 8.0 | 0.00 | 0.00 | 0.00 | 90 | 1016.4 |
| 20260502071534 | 52 | 183 | 1.0 | 7.0 | 0.00 | 0.00 | 0.00 | 93 | 1016.9 |
| 20260502070032 | 53 | 113 | 1.0 | 5.0 | 0.00 | 0.00 | 0.00 | 93 | 1016.9 |
| 20260502064533 | 52 | 136 | 3.0 | 7.0 | 0.00 | 0.00 | 0.00 | 93 | 1016.8 |
| 20260502063033 | 53 | 88 | 1.0 | 6.0 | 0.00 | 0.00 | 0.00 | 93 | 1016.9 |
| 20260502061531 | 53 | 155 | 0.0 | 3.0 | 0.00 | 0.00 | 0.00 | 94 | 1017.0 |
| 20260502060032 | 52 | 0 | 0.0 | 2.0 | 0.00 | 0.00 | 0.00 | 94 | 1017.1 |
| 20260502054530 | 51 | 0 | 0.0 | 0.0 | 0.00 | 0.00 | 0.00 | 94 | 1017.2 |
| 20260502053033 | 51 | 0 | 0.0 | 0.0 | 0.00 | 0.00 | 0.00 | 94 | 1017.2 |
| 20260502051534 | 51 | 0 | 0.0 | 0.0 | 0.00 | 0.00 | 0.00 | 93 | 1017.3 |
| 20260502050030 | 51 | 0 | 0.0 | 0.0 | 0.00 | 0.00 | 0.00 | 93 | 1017.2 |
| 20260502044531 | 51 | 0 | 0.0 | 1.0 | 0.00 | 0.00 | 0.00 | 94 | 1017.3 |
| 20260502043030 | 51 | 0 | 0.0 | 2.0 | 0.00 | 0.00 | 0.00 | 93 | 1017.3 |
| 20260502041532 | 51 | 108 | 0.0 | 1.0 | 0.00 | 0.00 | 0.00 | 93 | 1017.2 |
| 20260502040030 | 51 | 0 | 0.0 | 1.0 | 0.00 | 0.00 | 0.00 | 93 | 1017.3 |
| 20260502034530 | 51 | 0 | 0.0 | 1.0 | 0.00 | 0.00 | 0.00 | 93 | 1017.4 |
| 20260502033029 | 51 | 0 | 0.0 | 0.0 | 0.00 | 0.00 | 0.00 | 93 | 1017.4 |
| 20260502031529 | 51 | 0 | 0.0 | 0.0 | 0.00 | 0.00 | 0.00 | 93 | 1017.6 |
| 20260502030030 | 51 | 0 | 0.0 | 0.0 | 0.00 | 0.00 | 0.00 | 94 | 1017.8 |
| 20260502024532 | 51 | 0 | 0.0 | 0.0 | 0.00 | 0.00 | 0.00 | 93 | 1018.0 |
| 20260502023036 | 51 | 0 | 0.0 | 0.0 | 0.00 | 0.00 | 0.00 | 93 | 1018.1 |
| 20260502021534 | 51 | 0 | 0.0 | 0.0 | 0.00 | 0.00 | 0.00 | 93 | 1018.2 |
| 20260502020033 | 52 | 0 | 0.0 | 0.0 | 0.00 | 0.00 | 0.00 | 93 | 1018.2 |
| 20260502014528 | 52 | 156 | 0.0 | 1.0 | 0.00 | 0.00 | 0.00 | 93 | 1018.5 |
| 20260502013028 | 52 | 175 | 0.0 | 1.0 | 0.00 | 0.00 | 0.00 | 93 | 1018.9 |
| 20260502011530 | 51 | 0 | 0.0 | 1.0 | 0.00 | 0.00 | 0.00 | 93 | 1018.9 |
| 20260502010030 | 51 | 0 | 0.0 | 1.0 | 0.00 | 0.00 | 0.00 | 93 | 1019.0 |
| 20260502004528 | 51 | 0 | 0.0 | 0.0 | 0.00 | 0.00 | 0.00 | 93 | 1019.2 |
| 20260502003032 | 51 | 0 | 0.0 | 0.0 | 0.00 | 0.00 | 0.00 | 93 | 1019.2 |
| 20260502001531 | 51 | 0 | 0.0 | 0.0 | 0.00 | 0.00 | 0.00 | 93 | 1019.3 |
| 20260502000030 | 51 | 0 | 0.0 | 1.0 | 0.00 | 0.00 | 0.00 | 93 | 1019.5 |
| 20260501234535 | 51 | 0 | 0.0 | 1.0 | 0.00 | 0.00 | 0.00 | 93 | 1019.6 |
| 20260501233031 | 51 | 0 | 0.0 | 0.0 | 0.00 | 0.00 | 0.00 | 93 | 1019.6 |
| 20260501231530 | 51 | 0 | 0.0 | 0.0 | 0.00 | 0.00 | 0.00 | 93 | 1019.7 |
| 20260501230030 | 51 | 233 | 0.0 | 1.0 | 0.00 | 0.00 | 0.00 | 93 | 1019.8 |
| 20260501224539 | 51 | 0 | 0.0 | 0.0 | 0.00 | 0.00 | 0.00 | 93 | 1019.9 |
| 20260501223030 | 50 | 0 | 0.0 | 0.0 | 0.00 | 0.00 | 0.00 | 93 | 1019.9 |
| 20260501221536 | 50 | 0 | 0.0 | 0.0 | 0.00 | 0.00 | 0.00 | 93 | 1020.0 |
| 20260501220030 | 51 | 0 | 0.0 | 0.0 | 0.00 | 0.00 | 0.00 | 92 | 1019.9 |
| 20260501214533 | 51 | 0 | 0.0 | 1.0 | 0.00 | 0.00 | 0.00 | 92 | 1019.8 |
| 20260501213032 | 51 | 0 | 0.0 | 1.0 | 0.00 | 0.00 | 0.00 | 92 | 1019.9 |
| 20260501211529 | 51 | 328 | 0.0 | 1.0 | 0.00 | 0.00 | 0.00 | 92 | 1019.8 |
| 20260501210030 | 51 | 0 | 0.0 | 0.0 | 0.00 | 0.00 | 0.00 | 92 | 1019.9 |
| 20260501204532 | 52 | 0 | 0.0 | 1.0 | 0.00 | 0.00 | 0.00 | 91 | 1019.9 |
| 20260501203035 | 52 | 0 | 0.0 | 1.0 | 0.00 | 0.00 | 0.00 | 91 | 1019.7 |
| 20260501201535 | 52 | 224 | 0.0 | 1.0 | 0.00 | 0.00 | 0.00 | 91 | 1019.8 |
| 20260501200031 | 52 | 0 | 0.0 | 1.0 | 0.00 | 0.00 | 0.00 | 90 | 1019.7 |
| 20260501194532 | 52 | 347 | 0.0 | 1.0 | 0.00 | 0.00 | 0.00 | 90 | 1019.6 |
| 20260501193041 | 52 | 215 | 0.0 | 2.0 | 0.00 | 0.00 | 0.00 | 89 | 1019.5 |
| 20260501191530 | 53 | 0 | 0.0 | 1.0 | 0.00 | 0.00 | 0.00 | 88 | 1019.4 |
| 20260501190035 | 53 | 248 | 0.0 | 3.0 | 0.00 | 0.00 | 0.00 | 88 | 1019.3 |
| 20260501184531 | 54 | 251 | 0.0 | 3.0 | 0.00 | 0.00 | 0.00 | 87 | 1019.4 |
| 20260501183032 | 55 | 0 | 0.0 | 2.0 | 0.00 | 0.00 | 0.00 | 86 | 1019.4 |
| 20260501181533 | 54 | 288 | 1.0 | 4.0 | 0.00 | 0.00 | 0.00 | 86 | 1019.4 |
| 20260501180032 | 55 | 257 | 1.0 | 4.0 | 0.00 | 0.00 | 0.00 | 84 | 1019.5 |
| 20260501174536 | 56 | 233 | 1.0 | 4.0 | 0.00 | 0.00 | 0.00 | 82 | 1019.5 |
| 20260501173033 | 57 | 0 | 0.0 | 2.0 | 0.00 | 0.00 | 0.00 | 81 | 1019.4 |